Location: *
(40.7873°S, 98.7174°E)
Time: 13:10:04
(UTC+00:00)

Meteor 2-3 Rocket - Visible Passes

Search period start: 26 September 2022 00:00
Search period end: 06 October 2022 00:00
Orbit: 842 x 885 km, 81.2° (Epoch: 25 September)

Date Brightness Start Highest point End Pass type
(mag) Time Alt. Az. Time Alt. Az. Time Alt. Az.
26 Sep 6.6 18:05:58 10° SE 18:05:58 10° SE 18:06:05 10° SE visible
26 Sep 5.5 19:48:15 23° S 19:48:15 23° S 19:50:24 10° S visible
27 Sep 5.6 19:40:11 22° S 19:40:11 22° S 19:42:14 10° S visible
28 Sep 5.7 19:32:06 22° S 19:32:06 22° S 19:34:04 10° S visible
29 Sep 5.7 19:24:00 21° S 19:24:00 21° S 19:25:54 10° S visible
30 Sep 5.8 19:15:53 21° S 19:15:53 21° S 19:17:43 10° S visible
01 Oct 5.8 19:07:46 20° S 19:07:46 20° S 19:09:34 10° S visible
02 Oct 5.8 18:59:38 20° S 18:59:38 20° S 19:01:23 10° S visible
03 Oct 5.9 18:51:29 20° S 18:51:29 20° S 18:53:13 10° S visible
04 Oct 5.9 18:43:20 20° S 18:43:20 20° S 18:45:03 10° S visible
05 Oct 5.9 18:35:10 20° S 18:35:10 20° S 18:36:53 10° S visible
